Terug naar catalogus

STARLINK-34276

ActiefCommunicatieVLEO
NORAD 64263·PAYLOAD·🇺🇸 United States

Gelanceerd Jun 4, 2025 vanaf Vandenberg Space Force Base

Loading…

Volgende Passages (komende 24 uur)

TLE

VersSource: CelesTrak SupGP

Epoch: Sep 15, 2026, 03:10 UTC

1 64263C 25120H   26258.13243056  .00037987  00000+0  12214-2 0  2581
2 64263  53.1599 315.4563 0001283  90.2184 101.0818 15.31686925    16

Volg STARLINK-34276 in realtime met AllMySat

Download on the App Store